Printer-friendly version

IAU Minor Planet Center

Minor Planet Center

MPEC 2007-V20 : 2007 VE3

The following Minor Planet Electronic Circular may be linked-to from your own Web pages, but must not otherwise be redistributed electronically.


Read MPEC 2007-V19 Read MPEC 2007-V21


M.P.E.C. 2007-V20                                Issued 2007 Nov. 4, 18:38 UT

     The Minor Planet Electronic Circulars contain information on unusual
         minor planets and routine data on comets.  They are published
   on behalf of Commission 20 of the International Astronomical Union by the
          Minor Planet Center, Smithsonian Astrophysical Observatory,
                          Cambridge, MA 02138, U.S.A.

             Prepared using the Tamkin Foundation Computer Network

                              MPC@CFA.HARVARD.EDU
          URL http://www.cfa.harvard.edu/iau/mpc.html  ISSN 1523-6714

                                   2007 VE3

Observations:
     K07V03E* C2007 11 02.31630 02 36 16.09 +23 13 49.4          20.5   EV020704
     K07V03E  C2007 11 02.32898 02 36 13.96 +23 13 26.0          20.5   EV020704
     K07V03E  C2007 11 02.34065 02 36 12.06 +23 13 03.1          20.3   EV020704
     K07V03E  C2007 11 02.97825 02 34 40.30 +22 53 29.9          19.7 R EV020176
     K07V03E  C2007 11 02.99231 02 34 38.14 +22 53 05.3          19.7 R EV020176
     K07V03E  C2007 11 02.99543 02 34 37.67 +22 52 59.4          19.9 R EV020176
     K07V03E  C2007 11 02.99854 02 34 37.22 +22 52 53.9          19.7 R EV020176
     K07V03E  C2007 11 03.15102302 34 17.67 +22 48 25.2          20.6 V EV020H55
     K07V03E  C2007 11 03.15248202 34 17.45 +22 48 22.5          20.4 V EV020H55
     K07V03E  C2007 11 03.15418602 34 17.20 +22 48 19.7          20.7 V EV020H55
     K07V03E 5C2007 11 03.17477 02 34 15.21 +22 47 43.8          20.4 R EV020673
     K07V03E 5C2007 11 03.19769 02 34 11.82 +22 47 05.4                 EV020673
     K07V03E 5C2007 11 03.20891 02 34 10.14 +22 46 46.3                 EV020673
     K07V03E 5C2007 11 03.21574 02 34 09.12 +22 46 35.0                 EV020673
     K07V03E  C2007 11 03.30995 02 33 54.62 +22 43 58.2          19.9 R EV020651
     K07V03E  C2007 11 03.31104 02 33 54.49 +22 43 56.8          20.0 R EV020651
     K07V03E  C2007 11 03.36118 02 33 46.93 +22 42 29.4          20.4 V EV020291
     K07V03E  C2007 11 03.36575 02 33 46.25 +22 42 21.5          20.3 V EV020291
     K07V03E  C2007 11 03.37001 02 33 45.61 +22 42 13.9          20.4 V EV020291
     K07V03E  C2007 11 04.15082 02 32 09.60 +22 20 49.4          20.6 V EV020691
     K07V03E  C2007 11 04.16850 02 32 07.27 +22 20 23.0          20.5 V EV020691
     K07V03E  C2007 11 04.18618 02 32 04.92 +22 19 57.1          20.7 V EV020691
     K07V03E  C2007 11 04.23140 02 31 58.80 +22 18 46.9          20.2 V EV020G96
     K07V03E  C2007 11 04.23711 02 31 58.04 +22 18 38.2          20.3 V EV020G96
     K07V03E  C2007 11 04.24282 02 31 57.28 +22 18 29.5          20.0 V EV020G96
     K07V03E  C2007 11 04.24855 02 31 56.46 +22 18 20.7          20.4 V EV020G96

Observer details:
176 Observatori Astronomic de Consell.  Observers A. Lopez, R. Pacheco.
    0.41-m f/4 reflector + CCD.
291 LPL/Spacewatch II.  Observer M. T. Read.  1.8-m f/2.7 reflector + CCD.
651 Grasslands Observatory, Tucson.  Observer J. E. McGaha.  0.62-m f/5.1
    Newtonian reflector + CCD.
673 Table Mountain Observatory, Wrightwood.  Observer J. Young.  0.61-m f/16
    Cassegrain + CCD.
691 Steward Observatory, Kitt Peak.  Observer M. T. Read.  0.9-m f/3 reflector
    + CCD.
704 Lincoln Laboratory ETS, New Mexico.  Observers M. Bezpalko, D. Torres,
    R. Kracke, G. Spitz, J. Kistler.  Measurers J. Stuart, S. Scruggs.  1.0-m
    f/2.15 reflector + CCD.
G96 Mt. Lemmon Survey.  Observer A. Boattini.  Measurers E. C. Beshore,
    A. Boattini, G. J. Garradd, A. R. Gibbs, A. D. Grauer, R. E. Hill,
    R. A. Kowalski, S. M. Larson, R. H. McNaught.  1.5-m reflector + CCD.
H55 Astronomical Research Observatory, Charleston.  Observer R. Holmes.
    0.61-m f/4.0 astrograph + CCD.

Orbital elements:
2007 VE3                                                 Earth MOID = 0.0165 AU
Epoch 2007 Oct. 27.0 TT = JDT 2454400.5                 MPC
M  14.59200              (2000.0)            P               Q
n   0.27321599     Peri.  325.50148     +0.63423266     +0.77311151
a   2.3521516      Node   343.85803     -0.70364073     +0.57350068
e   0.7107925      Incl.    1.42084     -0.32037268     +0.27091616
P   3.61           H   23.0           G   0.15           U   8
Residuals in seconds of arc
071102 704  0.8-  0.2-    071103 H55  0.5+  0.1+    071103 291  0.1-  0.0
071102 704  0.5-  0.7+    071103 673  0.3-  0.2-    071104 691  0.2-  0.4-
071102 704  0.4+  0.3+    071103 673  0.2-  0.4-    071104 691  0.1-  0.1-
071102 176  0.3-  0.4-    071103 673  0.4-  0.7-    071104 691  0.0   0.8+
071102 176  0.1+  0.1-    071103 673  0.4-  0.6-    071104 G96  0.1+  0.3-
071102 176  0.3+  0.5-    071103 651  0.2+  0.0     071104 G96  0.3+  0.2-
071102 176  0.8+  0.5-    071103 651  0.7+  0.5+    071104 G96  0.5+  0.2-
071103 H55  0.4+  0.2+    071103 291  0.1-  0.1+    071104 G96  0.1-  0.2-
071103 H55  0.4+  0.0     071103 291  0.1-  0.2+

Ephemeris:
2007 VE3                 a,e,i = 2.35, 0.71, 1                   q = 0.6803
Date    TT    R. A. (2000) Decl.     Delta      r     Elong.  Phase     V
2007 10 27    03 02.36   +28 13.4    0.116    1.103   159.1    18.7    19.5
2007 10 29    02 51.17   +26 10.9    0.137    1.126   164.0    14.1    19.7
2007 10 31    02 43.12   +24 37.6    0.159    1.148   167.8    10.5    20.0
2007 11 02    02 37.09   +23 24.2    0.181    1.171   170.8     7.8    20.2
2007 11 04    02 32.43   +22 25.1    0.203    1.194   172.7     6.0    20.4
2007 11 06    02 28.76   +21 36.5    0.226    1.216   173.3     5.4    20.6
2007 11 08    02 25.83   +20 55.9    0.250    1.239   172.6     5.9    20.9
2007 11 10    02 23.48   +20 21.7    0.274    1.262   171.0     7.0    21.2
2007 11 12    02 21.60   +19 52.5    0.298    1.284   169.1     8.4    21.5
2007 11 14    02 20.11   +19 27.6    0.323    1.307   167.0     9.8    21.8
2007 11 16    02 18.96   +19 06.1    0.349    1.329   164.9    11.2    22.0

Gareth V. Williams           (C) Copyright 2007 MPC           M.P.E.C. 2007-V20

Read MPEC 2007-V19 Read MPEC 2007-V21


Our Web policy. Index to the CBAT/MPC/ICQ pages.


Valid HTML 4.01!